Location: Unspecified
(0.0000°N, 0.0000°E)
Time: 07:49:47
(UTC+00:00)

OV3-3 - Visible Passes

Search period start: 21 November 2018 00:00
Search period end: 01 December 2018 00:00
Orbit: 340 x 2243 km, 81.4° (Epoch: 21 November)

Date Brightness Start Highest point End Pass type
(mag) Time Alt. Az. Time Alt. Az. Time Alt. Az.
21 Nov 10.7 01:14:31 10° ESE 01:15:29 10° ESE 01:16:25 10° E visible
21 Nov 8.3 02:58:23 10° S 03:08:04 72° SSW 03:08:04 72° SSW visible
22 Nov 10.5 01:19:58 10° SE 01:24:39 15° ESE 01:24:39 15° ESE visible
22 Nov 8.7 03:08:00 10° SSW 03:16:01 50° SW 03:16:01 50° SW visible
23 Nov 10.2 01:27:41 10° SSE 01:32:44 20° ESE 01:32:44 20° ESE visible
23 Nov 9.2 03:17:51 10° SSW 03:24:08 34° SW 03:24:08 34° SW visible
24 Nov 10.1 01:36:01 10° SSE 01:40:58 24° SE 01:40:58 24° SE visible
24 Nov 9.6 03:27:57 10° SSW 03:32:22 24° SW 03:32:22 24° SW visible
25 Nov 10.0 01:44:44 10° SSE 01:49:18 25° SSE 01:49:18 25° SSE visible
25 Nov 10.0 03:38:25 10° SW 03:40:42 16° SW 03:40:42 16° SW visible
26 Nov 10.0 01:53:42 10° S 01:57:43 25° SSE 01:57:43 25° SSE visible
27 Nov 10.0 02:02:54 10° S 02:06:12 22° S 02:06:12 22° S visible
28 Nov 10.1 02:12:19 10° S 02:14:45 19° S 02:14:45 19° S visible
29 Nov 10.3 02:21:55 10° SSW 02:23:22 15° SSW 02:23:22 15° SSW visible
30 Nov 10.4 02:31:46 10° SSW 02:32:00 11° SSW 02:32:00 11° SSW visible
